{"data":{"norad_id":63185,"intl_designator":"2025-048C","name":"STARLINK-11618 [DTC]","alt_names":[],"object_type":"PAYLOAD","status":"ACTIVE","operator":null,"country":"US","launch_date":"2025-03-13","launch_site_code":"AFETR","launch_vehicle":null,"mission":null,"orbit_class":"UNKNOWN","rcs_meters":null,"size_class":null,"mass_kg":null,"dimensions":null,"purposes":["comms"],"wikipedia_slug":null,"has_3d_model":false,"image_url":null,"decayed_at":null,"tle_current":{"epoch":"2026-05-24T22:14:29.872896Z","epoch_age_seconds":77429,"freshness":"FRESH","line1":"1 63185U 25048C   26144.92673464  .00261543  00000+0  19735-2 0  9997","line2":"2 63185  43.0005 220.1531 0001306  50.5856 309.5127 15.70898161 70505","mean_motion":15.70898161,"eccentricity":0.0001306,"inclination_deg":43.0005,"raan_deg":220.1531,"arg_perigee_deg":50.5856,"mean_anomaly_deg":309.5127,"bstar":0.0019735,"rev_number":7050,"period_min":91.667304459974,"perigee_km":355.44931043686,"apogee_km":357.2083529121,"semimajor_km":6734.4658316745,"source":"CELESTRAK","updated_at":"2026-05-25T13:38:19.919066Z"}}}